Terminal Aerodrome Forecast
Issued by NWS Central Illinois

Home | Current Version | Previous Version | Text Only | Print | Product List | Glossary On
Versions: 1 2 3 4 5 6 7 8 9 10 11 12 13 14 15 16 17 18 19 20
690
FTUS43 KILX 271211 AAB
TAFSPI
TAF AMD
KSPI 271211Z 2712/2812 02007KT 2SM BR OVC003
      TEMPO 2712/2714 1/2SM FG VV002
     FM271400 07008KT 6SM BR SCT015
     FM271700 09008KT P6SM SCT030
     FM280200 11007KT 4SM SHRA BR VCTS SCT025CB OVC050
     FM280500 21008KT 5SM BR VCSH BKN025=

USA.gov is the U.S. government's official web portal to all federal, state and local government web resources and services.